BEIDOU IGSO 3

Last updated on April 2, 2019, 3:15 a.m. UTC

1 37384U 11013A   19091.00644862 -.00000151  00000-0  10000-3 0  9993
2 37384  58.6757  66.1432 0040648 209.8532  35.3806  1.00278153 29269
UTC
Height (km)
Latitude
Longitude
Inclination
Orbital Period
UTC large
Height (km)
Speed (km/s)
/
Latitude / Longitude
Inclination (degrees)
Orbital Period (minutes)
Azimuth
Elevation
Range (km)
Doppler Factor
iOS Compass Heading
iOS Angle

Next 30 passes for location: Hong Kong

Rise time Rise Azimuth (degrees) Set time Set Azimuth (degrees) Duration Max altitude (degrees)

No matching passes for this satellites